Year,Month,Day,Hour,Minute,Value (Times are PST for temperature in C)
2014,11,28,00,00,11.70
2014,11,28,00,01,11.70
2014,11,28,00,02,11.60
2014,11,28,00,03,11.60
2014,11,28,00,04,11.60
2014,11,28,00,05,11.60
2014,11,28,00,06,11.60
2014,11,28,00,07,11.60
2014,11,28,00,08,11.60
2014,11,28,00,09,11.60
2014,11,28,00,10,11.60
2014,11,28,00,11,11.60
2014,11,28,00,12,11.60
2014,11,28,00,13,11.60
2014,11,28,00,14,11.60
2014,11,28,00,15,11.60
2014,11,28,00,16,11.60
2014,11,28,00,17,11.60
2014,11,28,00,18,11.60
2014,11,28,00,19,11.60
2014,11,28,00,20,11.60
2014,11,28,00,21,11.60
2014,11,28,00,22,11.60
2014,11,28,00,23,11.60
2014,11,28,00,24,11.60
2014,11,28,00,25,11.60
2014,11,28,00,26,11.60
2014,11,28,00,27,11.60
2014,11,28,00,28,11.60
2014,11,28,00,29,11.60
2014,11,28,00,30,11.60
2014,11,28,00,31,11.60
2014,11,28,00,32,11.60
2014,11,28,00,33,11.60
2014,11,28,00,34,11.60
2014,11,28,00,35,11.60
2014,11,28,00,36,11.60
2014,11,28,00,37,11.50
2014,11,28,00,38,11.50
2014,11,28,00,39,11.50
2014,11,28,00,40,11.50
2014,11,28,00,41,11.50
2014,11,28,00,42,11.50
2014,11,28,00,43,11.50
2014,11,28,00,44,11.50
2014,11,28,00,45,11.50
2014,11,28,00,46,11.50
2014,11,28,00,47,11.50
2014,11,28,00,48,11.50
2014,11,28,00,49,11.50
2014,11,28,00,50,11.50
2014,11,28,00,51,11.50
2014,11,28,00,52,11.50
2014,11,28,00,53,11.50
2014,11,28,00,54,11.50
2014,11,28,00,55,11.50
2014,11,28,00,56,11.50
2014,11,28,00,57,11.50
2014,11,28,00,58,11.50
2014,11,28,00,59,11.50
2014,11,28,01,00,11.60
2014,11,28,01,01,11.60
2014,11,28,01,02,11.60
2014,11,28,01,03,11.60
2014,11,28,01,04,11.60
2014,11,28,01,05,11.60
2014,11,28,01,06,11.60
2014,11,28,01,07,11.60
2014,11,28,01,08,11.60
2014,11,28,01,09,11.60
2014,11,28,01,10,11.60
2014,11,28,01,11,11.60
2014,11,28,01,12,11.60
2014,11,28,01,13,11.60
2014,11,28,01,14,11.60
2014,11,28,01,15,11.60
2014,11,28,01,16,11.60
2014,11,28,01,17,11.60
2014,11,28,01,18,11.60
2014,11,28,01,19,11.60
2014,11,28,01,20,11.60
2014,11,28,01,21,11.60
2014,11,28,01,22,11.60
2014,11,28,01,23,11.60
2014,11,28,01,24,11.60
2014,11,28,01,25,11.60
2014,11,28,01,26,11.50
2014,11,28,01,27,11.50
2014,11,28,01,28,11.50
2014,11,28,01,29,11.50
2014,11,28,01,30,11.50
2014,11,28,01,31,11.50
2014,11,28,01,32,11.50
2014,11,28,01,33,11.50
2014,11,28,01,34,11.50
2014,11,28,01,35,11.50
2014,11,28,01,36,11.50
2014,11,28,01,37,11.50
2014,11,28,01,38,11.50
2014,11,28,01,39,11.40
2014,11,28,01,40,11.40
2014,11,28,01,41,11.40
2014,11,28,01,42,11.40
2014,11,28,01,43,11.40
2014,11,28,01,44,11.40
2014,11,28,01,45,11.40
2014,11,28,01,46,11.40
2014,11,28,01,47,11.40
2014,11,28,01,48,11.40
2014,11,28,01,49,11.40
2014,11,28,01,50,11.40
2014,11,28,01,51,11.40
2014,11,28,01,52,11.40
2014,11,28,01,53,11.40
2014,11,28,01,54,11.40
2014,11,28,01,55,11.40
2014,11,28,01,56,11.40
2014,11,28,01,57,11.40
2014,11,28,01,58,11.40
2014,11,28,01,59,11.40
2014,11,28,02,00,11.40
2014,11,28,02,01,11.40
2014,11,28,02,02,11.30
2014,11,28,02,03,11.30
2014,11,28,02,04,11.30
2014,11,28,02,05,11.30
2014,11,28,02,06,11.30
2014,11,28,02,07,11.30
2014,11,28,02,08,11.30
2014,11,28,02,09,11.30
2014,11,28,02,10,11.30
2014,11,28,02,11,11.30
2014,11,28,02,12,11.30
2014,11,28,02,13,11.30
2014,11,28,02,14,11.30
2014,11,28,02,15,11.30
2014,11,28,02,16,11.30
2014,11,28,02,17,11.30
2014,11,28,02,18,11.30
2014,11,28,02,19,11.30
2014,11,28,02,20,11.30
2014,11,28,02,21,11.30
2014,11,28,02,22,11.30
2014,11,28,02,23,11.30
2014,11,28,02,24,11.30
2014,11,28,02,25,11.30
2014,11,28,02,26,11.30
2014,11,28,02,27,11.30
2014,11,28,02,28,11.20
2014,11,28,02,29,11.20
2014,11,28,02,30,11.20
2014,11,28,02,31,11.20
2014,11,28,02,32,11.20
2014,11,28,02,33,11.20
2014,11,28,02,34,11.10
2014,11,28,02,35,11.10
2014,11,28,02,36,11.10
2014,11,28,02,37,11.10
2014,11,28,02,38,11.10
2014,11,28,02,39,11.10
2014,11,28,02,40,11.10
2014,11,28,02,41,11.00
2014,11,28,02,42,11.00
2014,11,28,02,43,11.00
2014,11,28,02,44,11.00
2014,11,28,02,45,10.90
2014,11,28,02,46,10.90
2014,11,28,02,47,10.90
2014,11,28,02,48,10.90
2014,11,28,02,49,10.80
2014,11,28,02,50,10.80
2014,11,28,02,51,10.80
2014,11,28,02,52,10.80
2014,11,28,02,53,10.80
2014,11,28,02,54,10.80
2014,11,28,02,55,10.80
2014,11,28,02,56,10.80
2014,11,28,02,57,10.70
2014,11,28,02,58,10.70
2014,11,28,02,59,10.70
2014,11,28,03,00,10.70
2014,11,28,03,01,10.70
2014,11,28,03,02,10.60
2014,11,28,03,03,10.60
2014,11,28,03,04,10.60
2014,11,28,03,05,10.60
2014,11,28,03,06,10.60
2014,11,28,03,07,10.50
2014,11,28,03,08,10.50
2014,11,28,03,09,10.50
2014,11,28,03,10,10.50
2014,11,28,03,11,10.40
2014,11,28,03,12,10.40
2014,11,28,03,13,10.40
2014,11,28,03,14,10.30
2014,11,28,03,15,10.30
2014,11,28,03,16,10.30
2014,11,28,03,17,10.30
2014,11,28,03,18,10.30
2014,11,28,03,19,10.30
2014,11,28,03,20,10.20
2014,11,28,03,21,10.20
2014,11,28,03,22,10.20
2014,11,28,03,23,10.20
2014,11,28,03,24,10.20
2014,11,28,03,25,10.10
2014,11,28,03,26,10.10
2014,11,28,03,27,10.10
2014,11,28,03,28,10.10
2014,11,28,03,29,10.00
2014,11,28,03,30,10.00
2014,11,28,03,31,10.00
2014,11,28,03,32,9.90
2014,11,28,03,33,9.90
2014,11,28,03,34,9.90
2014,11,28,03,35,9.90
2014,11,28,03,36,9.80
2014,11,28,03,37,9.80
2014,11,28,03,38,9.80
2014,11,28,03,39,9.80
2014,11,28,03,40,9.80
2014,11,28,03,41,9.70
2014,11,28,03,42,9.70
2014,11,28,03,43,9.70
2014,11,28,03,44,9.70
2014,11,28,03,45,9.60
2014,11,28,03,46,9.60
2014,11,28,03,47,9.60
2014,11,28,03,48,9.60
2014,11,28,03,49,9.60
2014,11,28,03,50,9.60
2014,11,28,03,51,9.50
2014,11,28,03,52,9.50
2014,11,28,03,53,9.50
2014,11,28,03,54,9.50
2014,11,28,03,55,9.50
2014,11,28,03,56,9.50
2014,11,28,03,57,9.40
2014,11,28,03,58,9.40
2014,11,28,03,59,9.40
2014,11,28,04,00,9.40
2014,11,28,04,01,9.40
2014,11,28,04,02,9.30
2014,11,28,04,03,9.30
2014,11,28,04,04,9.30
2014,11,28,04,05,9.20
2014,11,28,04,06,9.20
2014,11,28,04,07,9.20
2014,11,28,04,08,9.20
2014,11,28,04,09,9.10
2014,11,28,04,10,9.10
2014,11,28,04,11,9.10
2014,11,28,04,12,9.00
2014,11,28,04,13,9.00
2014,11,28,04,14,9.00
2014,11,28,04,15,8.90
2014,11,28,04,16,8.90
2014,11,28,04,17,8.90
2014,11,28,04,18,8.90
2014,11,28,04,19,8.90
2014,11,28,04,20,8.90
2014,11,28,04,21,8.90
2014,11,28,04,22,8.80
2014,11,28,04,23,8.80
2014,11,28,04,24,8.80
2014,11,28,04,25,8.80
2014,11,28,04,26,8.80
2014,11,28,04,27,8.80
2014,11,28,04,28,8.80
2014,11,28,04,29,8.80
2014,11,28,04,30,8.80
2014,11,28,04,31,8.80
2014,11,28,04,32,8.70
2014,11,28,04,33,8.70
2014,11,28,04,34,8.70
2014,11,28,04,35,8.70
2014,11,28,04,36,8.70
2014,11,28,04,37,8.60
2014,11,28,04,38,8.60
2014,11,28,04,39,8.60
2014,11,28,04,40,8.60
2014,11,28,04,41,8.60
2014,11,28,04,42,8.50
2014,11,28,04,43,8.50
2014,11,28,04,44,8.40
2014,11,28,04,45,8.40
2014,11,28,04,46,8.40
2014,11,28,04,47,8.40
2014,11,28,04,48,8.40
2014,11,28,04,49,8.30
2014,11,28,04,50,8.30
2014,11,28,04,51,8.30
2014,11,28,04,52,8.20
2014,11,28,04,53,8.20
2014,11,28,04,54,8.20
2014,11,28,04,55,8.20
2014,11,28,04,56,8.10
2014,11,28,04,57,8.10
2014,11,28,04,58,8.10
2014,11,28,04,59,8.00
2014,11,28,05,00,8.00
2014,11,28,05,01,7.90
2014,11,28,05,02,7.90
2014,11,28,05,03,7.90
2014,11,28,05,04,7.90
2014,11,28,05,05,7.80
2014,11,28,05,06,7.80
2014,11,28,05,07,7.80
2014,11,28,05,08,7.80
2014,11,28,05,09,7.80
2014,11,28,05,10,7.80
2014,11,28,05,11,7.80
2014,11,28,05,12,7.70
2014,11,28,05,13,7.70
2014,11,28,05,14,7.70
2014,11,28,05,15,7.70
2014,11,28,05,16,7.70
2014,11,28,05,17,7.60
2014,11,28,05,18,7.60
2014,11,28,05,19,7.60
2014,11,28,05,20,7.60
2014,11,28,05,21,7.50
2014,11,28,05,22,7.50
2014,11,28,05,23,7.40
2014,11,28,05,24,7.40
2014,11,28,05,25,7.40
2014,11,28,05,26,7.40
2014,11,28,05,27,7.40
2014,11,28,05,28,7.40
2014,11,28,05,29,7.40
2014,11,28,05,30,7.30
2014,11,28,05,31,7.30
2014,11,28,05,32,7.30
2014,11,28,05,33,7.30
2014,11,28,05,34,7.30
2014,11,28,05,35,7.30
2014,11,28,05,36,7.30
2014,11,28,05,37,7.30
2014,11,28,05,38,7.30
2014,11,28,05,39,7.30
2014,11,28,05,40,7.20
2014,11,28,05,41,7.20
2014,11,28,05,42,7.20
2014,11,28,05,43,7.20
2014,11,28,05,44,7.20
2014,11,28,05,45,7.20
2014,11,28,05,46,7.20
2014,11,28,05,47,7.20
2014,11,28,05,48,7.10
2014,11,28,05,49,7.10
2014,11,28,05,50,7.10
2014,11,28,05,51,7.10
2014,11,28,05,52,7.10
2014,11,28,05,53,7.10
2014,11,28,05,54,7.10
2014,11,28,05,55,7.10
2014,11,28,05,56,7.10
2014,11,28,05,57,7.10
2014,11,28,05,58,7.00
2014,11,28,05,59,7.00
2014,11,28,06,00,7.00
2014,11,28,06,01,6.90
2014,11,28,06,02,6.90
2014,11,28,06,03,6.90
2014,11,28,06,04,6.90
2014,11,28,06,05,6.80
2014,11,28,06,06,6.80
2014,11,28,06,07,6.70
2014,11,28,06,08,6.70
2014,11,28,06,09,6.70
2014,11,28,06,10,6.60
2014,11,28,06,11,6.60
2014,11,28,06,12,6.60
2014,11,28,06,13,6.50
2014,11,28,06,14,6.50
2014,11,28,06,15,6.50
2014,11,28,06,16,6.40
2014,11,28,06,17,6.40
2014,11,28,06,18,6.40
2014,11,28,06,19,6.40
2014,11,28,06,20,6.40
2014,11,28,06,21,6.30
2014,11,28,06,22,6.30
2014,11,28,06,23,6.30
2014,11,28,06,24,6.30
2014,11,28,06,25,6.30
2014,11,28,06,26,6.30
2014,11,28,06,27,6.20
2014,11,28,06,28,6.20
2014,11,28,06,29,6.20
2014,11,28,06,30,6.20
2014,11,28,06,31,6.20
2014,11,28,06,32,6.20
2014,11,28,06,33,6.10
2014,11,28,06,34,6.10
2014,11,28,06,35,6.10
2014,11,28,06,36,6.00
2014,11,28,06,37,6.00
2014,11,28,06,38,6.00
2014,11,28,06,39,6.00
2014,11,28,06,40,5.90
2014,11,28,06,41,5.90
2014,11,28,06,42,5.90
2014,11,28,06,43,5.90
2014,11,28,06,44,5.90
2014,11,28,06,45,5.90
2014,11,28,06,46,5.90
2014,11,28,06,47,5.90
2014,11,28,06,48,5.90
2014,11,28,06,49,5.90
2014,11,28,06,50,5.90
2014,11,28,06,51,6.00
2014,11,28,06,52,6.00
2014,11,28,06,53,5.90
2014,11,28,06,54,5.90
2014,11,28,06,55,5.90
2014,11,28,06,56,5.90
2014,11,28,06,57,5.90
2014,11,28,06,58,5.80
2014,11,28,06,59,5.80
2014,11,28,07,00,5.80
2014,11,28,07,01,5.80
2014,11,28,07,02,5.80
2014,11,28,07,03,5.80
2014,11,28,07,04,5.80
2014,11,28,07,05,5.80
2014,11,28,07,06,5.80
2014,11,28,07,07,5.80
2014,11,28,07,08,5.80
2014,11,28,07,09,5.80
2014,11,28,07,10,5.80
2014,11,28,07,11,5.80
2014,11,28,07,12,5.80
2014,11,28,07,13,5.80
2014,11,28,07,14,5.80
2014,11,28,07,15,5.80
2014,11,28,07,16,5.80
2014,11,28,07,17,5.70
2014,11,28,07,18,5.70
2014,11,28,07,19,5.70
2014,11,28,07,20,5.70
2014,11,28,07,21,5.70
2014,11,28,07,22,5.70
2014,11,28,07,23,5.70
2014,11,28,07,24,5.70
2014,11,28,07,25,5.70
2014,11,28,07,26,5.70
2014,11,28,07,27,5.70
2014,11,28,07,28,5.70
2014,11,28,07,29,5.70
2014,11,28,07,30,5.70
2014,11,28,07,31,5.70
2014,11,28,07,32,5.70
2014,11,28,07,33,5.70
2014,11,28,07,34,5.70
2014,11,28,07,35,5.70
2014,11,28,07,36,5.70
2014,11,28,07,37,5.70
2014,11,28,07,38,5.70
2014,11,28,07,39,5.70
2014,11,28,07,40,5.70
2014,11,28,07,41,5.70
2014,11,28,07,42,5.70
2014,11,28,07,43,5.60
2014,11,28,07,44,5.60
2014,11,28,07,45,5.60
2014,11,28,07,46,5.60
2014,11,28,07,47,5.60
2014,11,28,07,48,5.60
2014,11,28,07,49,5.60
2014,11,28,07,50,5.60
2014,11,28,07,51,5.60
2014,11,28,07,52,5.60
2014,11,28,07,53,5.60
2014,11,28,07,54,5.60
2014,11,28,07,55,5.60
2014,11,28,07,56,5.60
2014,11,28,07,57,5.60
2014,11,28,07,58,5.60
2014,11,28,07,59,5.60
2014,11,28,08,00,5.60
2014,11,28,08,01,5.60
2014,11,28,08,02,5.60
2014,11,28,08,03,5.60
2014,11,28,08,04,5.60
2014,11,28,08,05,5.60
2014,11,28,08,06,5.60
2014,11,28,08,07,5.60
2014,11,28,08,08,5.60
2014,11,28,08,09,5.60
2014,11,28,08,10,5.60
2014,11,28,08,11,5.50
2014,11,28,08,12,5.50
2014,11,28,08,13,5.50
2014,11,28,08,14,5.40
2014,11,28,08,15,5.40
2014,11,28,08,16,5.40
2014,11,28,08,17,5.40
2014,11,28,08,18,5.40
2014,11,28,08,19,5.40
2014,11,28,08,20,5.30
2014,11,28,08,21,5.30
2014,11,28,08,22,5.30
2014,11,28,08,23,5.30
2014,11,28,08,24,5.30
2014,11,28,08,25,5.20
2014,11,28,08,26,5.20
2014,11,28,08,27,5.20
2014,11,28,08,28,5.20
2014,11,28,08,29,5.20
2014,11,28,08,30,5.20
2014,11,28,08,31,5.10
2014,11,28,08,32,5.10
2014,11,28,08,33,5.10
2014,11,28,08,34,5.10
2014,11,28,08,35,5.10
2014,11,28,08,36,5.00
2014,11,28,08,37,5.00
2014,11,28,08,38,5.00
2014,11,28,08,39,5.00
2014,11,28,08,40,5.00
2014,11,28,08,41,5.00
2014,11,28,08,42,5.10
2014,11,28,08,43,5.00
2014,11,28,08,44,5.00
2014,11,28,08,45,5.00
2014,11,28,08,46,5.10
2014,11,28,10,22,5.50
2014,11,28,10,23,5.50
2014,11,28,10,24,5.50
2014,11,28,10,25,5.50
2014,11,28,10,26,5.60
2014,11,28,10,27,5.60
2014,11,28,10,28,5.60
2014,11,28,10,29,5.60
2014,11,28,10,30,5.60
2014,11,28,10,31,5.70
2014,11,28,10,32,5.70
2014,11,28,10,33,5.70
2014,11,28,10,34,5.70
2014,11,28,10,35,5.70
2014,11,28,10,36,5.70
2014,11,28,10,37,5.80
2014,11,28,10,38,5.80
2014,11,28,10,39,5.80
2014,11,28,10,40,5.80
2014,11,28,10,41,5.80
2014,11,28,10,42,5.80
2014,11,28,10,43,5.80
2014,11,28,10,44,5.80
2014,11,28,10,45,5.80
2014,11,28,10,46,5.80
2014,11,28,10,47,5.90
2014,11,28,10,48,5.90
2014,11,28,10,49,5.90
2014,11,28,10,50,5.90
2014,11,28,10,51,5.90
2014,11,28,10,52,5.90
2014,11,28,10,53,5.90
2014,11,28,10,54,5.90
2014,11,28,10,55,5.90
2014,11,28,10,56,5.90
2014,11,28,10,57,5.90
2014,11,28,10,58,5.90
2014,11,28,10,59,5.90
2014,11,28,11,00,5.90
2014,11,28,11,01,5.90
2014,11,28,11,02,5.90
2014,11,28,11,03,5.90
2014,11,28,11,04,5.90
2014,11,28,11,05,5.90
2014,11,28,11,06,5.90
2014,11,28,11,07,5.90
2014,11,28,11,08,6.00
2014,11,28,11,09,6.00
2014,11,28,11,10,6.00
2014,11,28,11,11,6.00
2014,11,28,11,12,6.00
2014,11,28,11,13,6.00
2014,11,28,11,14,6.10
2014,11,28,11,15,6.10
2014,11,28,11,16,6.10
2014,11,28,11,17,6.10
2014,11,28,11,18,6.10
2014,11,28,11,19,6.20
2014,11,28,11,20,6.20
2014,11,28,11,21,6.20
2014,11,28,11,22,6.20
2014,11,28,11,23,6.20
2014,11,28,11,24,6.20
2014,11,28,11,25,6.20
2014,11,28,11,26,6.20
2014,11,28,11,27,6.20
2014,11,28,11,28,6.20
2014,11,28,11,29,6.20
2014,11,28,11,30,6.20
2014,11,28,11,31,6.20
2014,11,28,11,32,6.20
2014,11,28,11,33,6.10
2014,11,28,11,34,6.10
2014,11,28,11,35,6.10
2014,11,28,11,36,6.10
2014,11,28,11,37,6.20
2014,11,28,11,38,6.20
2014,11,28,11,39,6.20
2014,11,28,11,40,6.10
2014,11,28,11,41,6.10
2014,11,28,11,42,6.10
2014,11,28,11,43,6.10
2014,11,28,11,44,6.10
2014,11,28,11,45,6.10
2014,11,28,11,46,6.10
2014,11,28,11,47,6.10
2014,11,28,11,48,6.10
2014,11,28,11,49,6.10
2014,11,28,11,50,6.10
2014,11,28,11,51,6.10
2014,11,28,11,52,6.20
2014,11,28,11,53,6.20
2014,11,28,11,54,6.20
2014,11,28,11,55,6.20
2014,11,28,11,56,6.10
2014,11,28,11,57,6.10
2014,11,28,11,58,6.10
2014,11,28,11,59,6.10
2014,11,28,12,00,6.10
2014,11,28,12,01,6.10
2014,11,28,12,02,6.10
2014,11,28,12,03,6.10
2014,11,28,12,04,6.10
2014,11,28,12,05,6.10
2014,11,28,12,06,6.10
2014,11,28,12,07,6.10
2014,11,28,12,08,6.10
2014,11,28,12,09,6.10
2014,11,28,12,10,6.10
2014,11,28,12,11,6.10
2014,11,28,12,12,6.10
2014,11,28,12,13,6.10
2014,11,28,12,14,6.20
2014,11,28,12,15,6.20
2014,11,28,12,16,6.20
2014,11,28,12,17,6.10
2014,11,28,12,18,6.00
2014,11,28,12,19,6.00
2014,11,28,12,20,6.00
2014,11,28,12,21,5.90
2014,11,28,12,22,5.90
2014,11,28,12,23,5.90
2014,11,28,12,24,5.90
2014,11,28,12,25,5.90
2014,11,28,12,26,5.90
2014,11,28,12,27,5.90
2014,11,28,12,28,5.90
2014,11,28,12,29,5.90
2014,11,28,12,30,5.90
2014,11,28,12,31,5.90
2014,11,28,12,32,5.90
2014,11,28,12,33,5.90
2014,11,28,12,34,5.90
2014,11,28,12,35,5.90
2014,11,28,12,36,5.90
2014,11,28,12,37,5.90
2014,11,28,12,38,5.90
2014,11,28,12,39,5.90
2014,11,28,12,40,5.90
2014,11,28,12,41,6.00
2014,11,28,12,42,6.00
2014,11,28,12,43,6.00
2014,11,28,12,44,6.00
2014,11,28,12,45,6.00
2014,11,28,12,46,6.00
2014,11,28,12,47,6.00
2014,11,28,12,48,6.00
2014,11,28,12,49,6.00
2014,11,28,12,50,6.10
2014,11,28,12,51,6.10
2014,11,28,12,52,6.10
2014,11,28,12,53,6.10
2014,11,28,12,54,6.10
2014,11,28,12,55,6.10
2014,11,28,12,56,6.10
2014,11,28,12,57,6.10
2014,11,28,12,58,6.20
2014,11,28,12,59,6.10
2014,11,28,13,00,6.10
2014,11,28,13,01,6.10
2014,11,28,13,02,6.10
2014,11,28,13,03,6.10
2014,11,28,13,04,6.10
2014,11,28,13,05,6.10
2014,11,28,13,06,6.10
2014,11,28,13,07,6.10
2014,11,28,13,08,6.10
2014,11,28,13,09,6.10
2014,11,28,13,10,6.10
2014,11,28,13,11,6.10
2014,11,28,13,12,6.10
2014,11,28,13,13,6.10
2014,11,28,13,14,6.20
2014,11,28,13,15,6.20
2014,11,28,13,16,6.20
2014,11,28,13,17,6.30
2014,11,28,13,18,6.30
2014,11,28,13,19,6.30
2014,11,28,13,20,6.30
2014,11,28,13,21,6.30
2014,11,28,13,22,6.30
2014,11,28,13,23,6.30
2014,11,28,13,24,6.30
2014,11,28,13,25,6.30
2014,11,28,13,26,6.30
2014,11,28,13,27,6.30
2014,11,28,13,28,6.30
2014,11,28,13,29,6.30
2014,11,28,13,30,6.30
2014,11,28,13,31,6.30
2014,11,28,13,32,6.30
2014,11,28,13,33,6.30
2014,11,28,13,34,6.30
2014,11,28,13,35,6.30
2014,11,28,13,36,6.30
2014,11,28,13,37,6.30
2014,11,28,13,38,6.30
2014,11,28,13,39,6.30
2014,11,28,13,40,6.30
2014,11,28,13,41,6.30
2014,11,28,13,42,6.30
2014,11,28,13,43,6.30
2014,11,28,13,44,6.30
2014,11,28,13,45,6.30
2014,11,28,13,46,6.20
2014,11,28,13,47,6.20
2014,11,28,13,48,6.20
2014,11,28,13,49,6.20
2014,11,28,13,50,6.20
2014,11,28,13,51,6.30
2014,11,28,13,52,6.30
2014,11,28,13,53,6.30
2014,11,28,13,54,6.30
2014,11,28,13,55,6.30
2014,11,28,13,56,6.30
2014,11,28,13,57,6.30
2014,11,28,13,58,6.30
2014,11,28,13,59,6.40
2014,11,28,14,00,6.40
2014,11,28,14,01,6.40
2014,11,28,14,02,6.40
2014,11,28,14,03,6.40
2014,11,28,14,04,6.30
2014,11,28,14,05,6.30
2014,11,28,14,06,6.30
2014,11,28,14,07,6.30
2014,11,28,14,08,6.20
2014,11,28,14,09,6.20
2014,11,28,14,10,6.20
2014,11,28,14,11,6.20
2014,11,28,14,12,6.20
2014,11,28,14,13,6.20
2014,11,28,14,14,6.20
2014,11,28,14,15,6.20
2014,11,28,14,16,6.20
2014,11,28,14,17,6.20
2014,11,28,14,18,6.20
2014,11,28,14,19,6.20
2014,11,28,14,20,6.20
2014,11,28,14,21,6.20
2014,11,28,14,22,6.20
2014,11,28,14,23,6.20
2014,11,28,14,24,6.20
2014,11,28,14,25,6.20
2014,11,28,14,26,6.20
2014,11,28,14,27,6.20
2014,11,28,14,28,6.20
2014,11,28,14,29,6.20
2014,11,28,14,30,6.20
2014,11,28,14,31,6.20
2014,11,28,14,32,6.10
2014,11,28,14,33,6.00
2014,11,28,14,34,6.00
2014,11,28,14,35,5.90
2014,11,28,14,36,5.90
2014,11,28,14,37,5.80
2014,11,28,14,38,5.80
2014,11,28,14,39,5.80
2014,11,28,14,40,5.70
2014,11,28,14,41,5.70
2014,11,28,14,42,5.60
2014,11,28,14,43,5.60
2014,11,28,14,44,5.60
2014,11,28,14,45,5.60
2014,11,28,14,46,5.50
2014,11,28,14,47,5.50
2014,11,28,14,48,5.40
2014,11,28,14,49,5.40
2014,11,28,14,50,5.40
2014,11,28,14,51,5.40
2014,11,28,14,52,5.40
2014,11,28,14,53,5.40
2014,11,28,14,54,5.40
2014,11,28,14,55,5.40
2014,11,28,14,56,5.30
2014,11,28,14,57,5.30
2014,11,28,14,58,5.30
2014,11,28,14,59,5.30
2014,11,28,15,00,5.30
2014,11,28,15,01,5.20
2014,11,28,15,02,5.20
2014,11,28,15,03,5.20
2014,11,28,15,04,5.20
2014,11,28,15,05,5.20
2014,11,28,15,06,5.20
2014,11,28,15,07,5.20
2014,11,28,15,08,5.20
2014,11,28,15,09,5.20
2014,11,28,15,10,5.20
2014,11,28,15,11,5.20
2014,11,28,15,12,5.20
2014,11,28,15,13,5.20
2014,11,28,15,14,5.20
2014,11,28,15,15,5.20
2014,11,28,15,16,5.20
2014,11,28,15,17,5.10
2014,11,28,15,18,5.10
2014,11,28,15,19,5.20
2014,11,28,15,20,5.20
2014,11,28,15,21,5.20
2014,11,28,15,22,5.20
2014,11,28,15,23,5.20
2014,11,28,15,24,5.20
2014,11,28,15,25,5.20
2014,11,28,15,26,5.20
2014,11,28,15,27,5.10
2014,11,28,15,28,5.10
2014,11,28,15,29,5.10
2014,11,28,15,30,5.10
2014,11,28,15,31,5.10
2014,11,28,15,32,5.10
2014,11,28,15,33,5.10
2014,11,28,15,34,5.00
2014,11,28,15,35,5.00
2014,11,28,15,36,5.00
2014,11,28,15,37,5.00
2014,11,28,15,38,4.90
2014,11,28,15,39,4.90
2014,11,28,15,40,4.80
2014,11,28,15,41,4.80
2014,11,28,15,42,4.80
2014,11,28,15,43,4.80
2014,11,28,15,44,4.70
2014,11,28,15,45,4.70
2014,11,28,15,46,4.70
2014,11,28,15,47,4.70
2014,11,28,15,48,4.70
2014,11,28,15,49,4.60
2014,11,28,15,50,4.60
2014,11,28,15,51,4.60
2014,11,28,15,52,4.60
2014,11,28,15,53,4.60
2014,11,28,15,54,4.50
2014,11,28,15,55,4.50
2014,11,28,15,56,4.40
2014,11,28,15,57,4.40
2014,11,28,15,58,4.40
2014,11,28,15,59,4.40
2014,11,28,16,00,4.40
2014,11,28,16,01,4.30
2014,11,28,16,02,4.30
2014,11,28,16,03,4.30
2014,11,28,16,04,4.30
2014,11,28,16,05,4.30
2014,11,28,16,06,4.20
2014,11,28,16,07,4.20
2014,11,28,16,08,4.20
2014,11,28,16,09,4.20
2014,11,28,16,10,4.20
2014,11,28,16,11,4.10
2014,11,28,16,12,4.10
2014,11,28,16,13,4.10
2014,11,28,16,14,4.10
2014,11,28,16,15,4.10
2014,11,28,16,16,4.00
2014,11,28,16,17,4.00
2014,11,28,16,18,3.90
2014,11,28,16,19,3.90
2014,11,28,16,20,3.90
2014,11,28,16,21,3.90
2014,11,28,16,22,3.90
2014,11,28,16,23,3.90
2014,11,28,16,24,3.90
2014,11,28,16,25,3.80
2014,11,28,16,26,3.80
2014,11,28,16,27,3.80
2014,11,28,16,28,3.80
2014,11,28,16,29,3.80
2014,11,28,16,30,3.80
2014,11,28,16,31,3.70
2014,11,28,16,32,3.70
2014,11,28,16,33,3.70
2014,11,28,16,34,3.70
2014,11,28,16,35,3.70
2014,11,28,16,36,3.70
2014,11,28,16,37,3.70
2014,11,28,16,38,3.70
2014,11,28,16,39,3.70
2014,11,28,16,40,3.60
2014,11,28,16,41,3.60
2014,11,28,16,42,3.60
2014,11,28,16,43,3.60
2014,11,28,16,44,3.60
2014,11,28,16,45,3.60
2014,11,28,16,46,3.50
2014,11,28,16,47,3.50
2014,11,28,16,48,3.40
2014,11,28,16,49,3.40
2014,11,28,16,50,3.40
2014,11,28,16,51,3.40
2014,11,28,16,52,3.30
2014,11,28,16,53,3.30
2014,11,28,16,54,3.30
2014,11,28,16,55,3.30
2014,11,28,16,56,3.30
2014,11,28,16,57,3.30
2014,11,28,16,58,3.30
2014,11,28,16,59,3.30
2014,11,28,17,00,3.30
2014,11,28,17,01,3.30
2014,11,28,17,02,3.30
2014,11,28,17,03,3.30
2014,11,28,17,04,3.30
2014,11,28,17,05,3.30
2014,11,28,17,06,3.30
2014,11,28,17,07,3.30
2014,11,28,17,08,3.30
2014,11,28,17,09,3.30
2014,11,28,17,10,3.30
2014,11,28,17,11,3.40
2014,11,28,17,12,3.40
2014,11,28,17,13,3.40
2014,11,28,17,14,3.40
2014,11,28,17,15,3.40
2014,11,28,17,16,3.40
2014,11,28,17,17,3.40
2014,11,28,17,18,3.40
2014,11,28,17,19,3.40
2014,11,28,17,20,3.40
2014,11,28,17,21,3.40
2014,11,28,17,22,3.50
2014,11,28,17,23,3.40
2014,11,28,17,24,3.50
2014,11,28,17,25,3.50
2014,11,28,17,26,3.50
2014,11,28,17,27,3.50
2014,11,28,17,28,3.50
2014,11,28,17,29,3.50
2014,11,28,17,30,3.50
2014,11,28,17,31,3.50
2014,11,28,17,32,3.50
2014,11,28,17,33,3.50
2014,11,28,17,34,3.50
2014,11,28,17,35,3.50
2014,11,28,17,36,3.60
2014,11,28,17,37,3.60
2014,11,28,17,38,3.60
2014,11,28,17,39,3.60
2014,11,28,17,40,3.60
2014,11,28,17,41,3.60
2014,11,28,17,42,3.60
2014,11,28,17,43,3.60
2014,11,28,17,44,3.60
2014,11,28,17,45,3.60
2014,11,28,17,46,3.60
2014,11,28,17,47,3.60
2014,11,28,17,48,3.60
2014,11,28,17,49,3.60
2014,11,28,17,50,3.60
2014,11,28,17,51,3.60
2014,11,28,17,52,3.60
2014,11,28,17,53,3.50
2014,11,28,17,54,3.50
2014,11,28,17,55,3.50
2014,11,28,17,56,3.50
2014,11,28,17,57,3.50
2014,11,28,17,58,3.50
2014,11,28,17,59,3.50
2014,11,28,18,00,3.60
2014,11,28,18,01,3.60
2014,11,28,18,02,3.60
2014,11,28,18,03,3.60
2014,11,28,18,04,3.70
2014,11,28,18,05,3.70
2014,11,28,18,06,3.80
2014,11,28,18,07,3.70
2014,11,28,18,08,3.70
2014,11,28,18,09,3.80
2014,11,28,18,10,3.80
2014,11,28,18,11,3.80
2014,11,28,18,12,3.80
2014,11,28,18,13,3.80
2014,11,28,18,14,3.80
2014,11,28,18,15,3.80
2014,11,28,18,16,3.80
2014,11,28,18,17,3.90
2014,11,28,18,18,3.90
2014,11,28,18,19,3.90
2014,11,28,18,20,3.90
2014,11,28,18,21,3.90
2014,11,28,18,22,3.90
2014,11,28,18,23,3.90
2014,11,28,18,24,3.90
2014,11,28,18,25,3.90
2014,11,28,18,26,3.90
2014,11,28,18,27,3.90
2014,11,28,18,28,3.90
2014,11,28,18,29,3.90
2014,11,28,18,30,3.90
2014,11,28,18,31,3.90
2014,11,28,18,32,3.90
2014,11,28,18,33,3.90
2014,11,28,18,34,4.00
2014,11,28,18,35,4.00
2014,11,28,18,36,3.90
2014,11,28,18,37,3.90
2014,11,28,18,38,3.90
2014,11,28,18,39,4.00
2014,11,28,18,40,3.90
2014,11,28,18,41,4.00
2014,11,28,18,42,4.00
2014,11,28,18,43,3.90
2014,11,28,18,44,3.90
2014,11,28,18,45,4.00
2014,11,28,18,46,4.00
2014,11,28,18,47,4.00
2014,11,28,18,48,4.00
2014,11,28,18,49,4.00
2014,11,28,18,50,4.00
2014,11,28,18,51,3.90
2014,11,28,18,52,3.90
2014,11,28,18,53,3.90
2014,11,28,18,54,3.90
2014,11,28,18,55,3.90
2014,11,28,18,56,4.00
2014,11,28,18,57,4.00
2014,11,28,18,58,3.90
2014,11,28,18,59,4.00
2014,11,28,19,00,4.00
2014,11,28,19,01,4.00
2014,11,28,19,02,4.00
2014,11,28,19,03,4.10
2014,11,28,19,04,4.10
2014,11,28,19,05,4.10
2014,11,28,19,06,4.10
2014,11,28,19,07,4.10
2014,11,28,19,08,4.00
2014,11,28,19,09,4.00
2014,11,28,19,10,3.90
2014,11,28,19,11,3.90
2014,11,28,19,12,3.90
2014,11,28,19,13,3.90
2014,11,28,19,14,3.90
2014,11,28,19,15,3.90
2014,11,28,19,16,3.90
2014,11,28,19,17,3.90
2014,11,28,19,18,3.80
2014,11,28,19,19,3.80
2014,11,28,19,20,3.80
2014,11,28,19,21,3.80
2014,11,28,19,22,3.80
2014,11,28,19,23,3.80
2014,11,28,19,24,3.70
2014,11,28,19,25,3.70
2014,11,28,19,26,3.70
2014,11,28,19,27,3.70
2014,11,28,19,28,3.70
2014,11,28,19,29,3.70
2014,11,28,19,30,3.70
2014,11,28,19,31,3.70
2014,11,28,19,32,3.70